Weather in Mykolaiv

Ukraine / Mykolaiv District     46°58′30″N   31°59′40″E
temp.,
°C
wind,
m/s
gust,
m/s
humid.,
%
clouds,
%
prec.,
mm/h
press.,
hPa
HPBL,
m
9 march, tue
tue923:000nnw257621 0.0 1016244
02:000nw587157 0.0 1018475
05:00−2nnw477075 0.0 1019358
08:00−1nnw475537 0.0 1020714
11:00+2nnw56400 0.0 10211446
14:00+4nw453828 0.0 10211703
17:00+2nnw454481 0.0 10221454
20:00−1n366148 0.0 1024281
10 march, wed
wed1023:00−1nne23650 0.0 1025139
02:00−2ne23684 0.0 1026128
05:00−3ene367347 0.0 1026264
08:00−2ene455672 0.0 1026438
11:00+1e4538100 0.0 1026946
14:00+2e4430100 0.0 10251277
17:00+1ene4536100 0.0 1024968
20:00−2ene5944100 0.0 1024369
11 march, thu
thu1123:00−2ene4846100 0.0 1025401
02:00−2ene4849100 0.0 1025445
05:00−3ene4851100 0.0 1025454
08:00−2ene684566 0.0 1026724
11:00+2ene573389 0.0 10271231
14:00+3e552871 0.0 10261494
17:00+2ene45360 0.0 10261325
20:00−1e49480 0.0 1027291
12 march, fri
fri1223:00−2e48500 0.0 1028319
02:00−3ese48520 0.0 1028357
05:00−4ese485017 0.0 1029304
08:00−3se574056 0.0 1029428
11:00+1sse672873 0.0 1029854
14:00+2s673077 0.0 10281203
17:00+1sse694197 0.0 1026892
20:000se7125398 0.1 1027735
13 march, sat
sat1323:00−1se71382100 0.1 1026548
02:00−1sse71196100 1.7 1025393
05:00+1s71197100 1.9 1025564
08:00+1s71196100 2.3 1026688
11:00+3sse6964100 0.0 1026810
14:00+5s6747100 0.0 10251005
17:00+4s3650100 0.0 1023423
20:00+2se5862100 0.0 1023281